Time,TemperatureF,DewpointF,PressureIn,WindDirection,WindDirectionDegrees,WindSpeedMPH,WindSpeedGustMPH,Humidity,HourlyPrecipIn,Conditions,Clouds,dailyrainin,SoftwareType,DateUTC
2013-04-13 00:01:00,40.0,37.3,29.71,SE,135,7.2,9.8,90,0.00,,,0.00,WUHU216HW,2013-04-13 07:01:00,
2013-04-13 00:06:00,39.8,37.1,29.72,SE,135,2.5,11.2,90,0.00,,,0.00,WUHU216HW,2013-04-13 07:06:00,
2013-04-13 00:11:00,39.8,37.1,29.72,SSE,158,4.0,11.2,90,0.00,,,0.00,WUHU216HW,2013-04-13 07:11:00,
2013-04-13 00:17:00,39.8,37.1,29.72,SW,225,4.3,8.3,90,0.00,,,0.00,WUHU216HW,2013-04-13 07:17:00,
2013-04-13 00:22:00,39.6,36.6,29.73,South,180,2.2,8.3,89,0.00,,,0.00,WUHU216HW,2013-04-13 07:22:00,
2013-04-13 00:27:00,39.6,36.6,29.73,North,0,3.6,8.3,89,0.00,,,0.00,WUHU216HW,2013-04-13 07:27:00,
2013-04-13 00:32:00,39.6,36.6,29.74,South,180,8.5,10.3,89,0.00,,,0.00,WUHU216HW,2013-04-13 07:32:00,
2013-04-13 00:37:00,39.6,36.6,29.74,West,270,6.3,10.3,89,0.00,,,0.00,WUHU216HW,2013-04-13 07:37:00,
2013-04-13 00:42:00,39.6,36.6,29.75,West,270,9.8,11.2,89,0.00,,,0.00,WUHU216HW,2013-04-13 07:42:00,
2013-04-13 00:47:00,39.8,36.8,29.74,WSW,248,8.3,11.9,89,0.00,,,0.00,WUHU216HW,2013-04-13 07:47:00,
2013-04-13 00:52:00,39.6,36.6,29.75,SW,225,3.4,11.9,89,0.00,,,0.00,WUHU216HW,2013-04-13 07:52:00,
2013-04-13 00:57:00,39.4,36.5,29.74,SE,135,2.5,11.4,89,0.00,,,0.00,WUHU216HW,2013-04-13 07:57:00,
2013-04-13 01:02:00,39.4,36.5,29.75,WSW,248,2.2,8.3,89,0.00,,,0.00,WUHU216HW,2013-04-13 08:02:00,
2013-04-13 01:07:00,39.2,36.3,29.74,SSE,158,6.3,11.4,89,0.00,,,0.00,WUHU216HW,2013-04-13 08:07:00,
2013-04-13 01:13:00,39.2,36.3,29.75,SSW,203,0.9,11.4,89,0.00,,,0.00,WUHU216HW,2013-04-13 08:13:00,
2013-04-13 01:18:00,39.2,36.3,29.76,SW,225,5.8,7.6,89,0.00,,,0.00,WUHU216HW,2013-04-13 08:18:00,
2013-04-13 01:23:00,39.1,36.1,29.75,WSW,248,1.6,6.5,89,0.00,,,0.00,WUHU216HW,2013-04-13 08:23:00,
2013-04-13 01:28:00,39.1,35.8,29.76,SW,225,2.9,10.5,88,0.00,,,0.00,WUHU216HW,2013-04-13 08:28:00,
2013-04-13 01:33:00,38.9,35.7,29.76,South,180,4.9,10.5,88,0.00,,,0.00,WUHU216HW,2013-04-13 08:33:00,
2013-04-13 01:38:00,38.9,35.7,29.76,SSE,158,1.3,6.9,88,0.00,,,0.00,WUHU216HW,2013-04-13 08:38:00,
2013-04-13 01:43:00,38.9,35.7,29.76,SW,225,7.2,7.2,88,0.00,,,0.00,WUHU216HW,2013-04-13 08:43:00,
2013-04-13 01:48:00,38.9,35.7,29.76,SW,225,5.8,7.2,88,0.00,,,0.00,WUHU216HW,2013-04-13 08:48:00,
2013-04-13 01:53:00,38.7,35.5,29.76,SW,225,1.3,7.6,88,0.00,,,0.00,WUHU216HW,2013-04-13 08:53:00,
2013-04-13 01:58:00,38.7,35.5,29.76,WSW,248,3.6,9.8,88,0.00,,,0.00,WUHU216HW,2013-04-13 08:58:00,
2013-04-13 02:04:00,38.5,35.3,29.76,West,270,1.1,9.8,88,0.00,,,0.00,WUHU216HW,2013-04-13 09:04:00,
2013-04-13 02:09:00,38.5,35.3,29.76,SW,225,2.0,7.6,88,0.00,,,0.00,WUHU216HW,2013-04-13 09:09:00,
2013-04-13 02:14:00,38.5,35.3,29.76,WSW,248,6.3,9.4,88,0.00,,,0.00,WUHU216HW,2013-04-13 09:14:00,
2013-04-13 02:19:00,38.3,35.1,29.76,SE,135,4.7,9.4,88,0.00,,,0.00,WUHU216HW,2013-04-13 09:19:00,
2013-04-13 02:24:00,38.2,34.9,29.76,SW,225,5.1,5.8,88,0.00,,,0.00,WUHU216HW,2013-04-13 09:24:00,
2013-04-13 02:29:00,38.2,34.9,29.76,WSW,248,2.2,7.8,88,0.00,,,0.00,WUHU216HW,2013-04-13 09:29:00,
2013-04-13 02:34:00,38.2,34.9,29.77,West,270,2.5,7.8,88,0.00,,,0.00,WUHU216HW,2013-04-13 09:34:00,
2013-04-13 02:40:00,38.2,34.9,29.77,WSW,248,8.9,8.9,88,0.00,,,0.00,WUHU216HW,2013-04-13 09:40:00,
2013-04-13 02:45:00,38.0,34.8,29.77,WSW,248,3.1,8.9,88,0.00,,,0.00,WUHU216HW,2013-04-13 09:45:00,
2013-04-13 02:50:00,38.0,34.8,29.77,SSE,158,1.8,9.2,88,0.00,,,0.00,WUHU216HW,2013-04-13 09:50:00,
2013-04-13 02:55:00,38.0,34.8,29.77,WSW,248,2.2,9.2,88,0.00,,,0.00,WUHU216HW,2013-04-13 09:55:00,
2013-04-13 03:00:00,38.0,34.4,29.77,WSW,248,2.0,6.9,87,0.00,,,0.00,WUHU216HW,2013-04-13 10:00:00,
2013-04-13 03:05:00,38.0,34.4,29.78,WSW,248,0.7,6.9,87,0.00,,,0.00,WUHU216HW,2013-04-13 10:05:00,
2013-04-13 03:10:00,38.0,34.4,29.79,SW,225,4.0,11.6,87,0.00,,,0.00,WUHU216HW,2013-04-13 10:10:00,
2013-04-13 03:15:00,37.8,34.2,29.79,SSW,203,1.3,11.6,87,0.00,,,0.00,WUHU216HW,2013-04-13 10:15:00,
2013-04-13 03:20:00,37.8,34.2,29.79,WSW,248,3.4,7.2,87,0.00,,,0.00,WUHU216HW,2013-04-13 10:20:00,
2013-04-13 03:26:00,37.8,34.2,29.79,West,270,8.3,8.3,87,0.00,,,0.00,WUHU216HW,2013-04-13 10:26:00,
2013-04-13 03:31:00,38.0,34.4,29.80,South,180,7.6,8.3,87,0.00,,,0.00,WUHU216HW,2013-04-13 10:31:00,
2013-04-13 03:36:00,38.0,34.4,29.80,SW,225,4.7,9.6,87,0.00,,,0.00,WUHU216HW,2013-04-13 10:36:00,
2013-04-13 03:41:00,38.0,34.4,29.80,WSW,248,2.7,9.6,87,0.00,,,0.00,WUHU216HW,2013-04-13 10:41:00,
2013-04-13 03:47:00,37.8,34.2,29.80,SW,225,4.9,8.9,87,0.00,,,0.00,WUHU216HW,2013-04-13 10:47:00,
2013-04-13 03:52:00,37.8,34.2,29.80,WSW,248,10.1,10.1,87,0.00,,,0.00,WUHU216HW,2013-04-13 10:52:00,
2013-04-13 03:57:00,37.8,34.2,29.81,SW,225,5.4,12.1,87,0.00,,,0.00,WUHU216HW,2013-04-13 10:57:00,
2013-04-13 04:02:00,37.8,33.9,29.81,SW,225,7.4,12.1,86,0.00,,,0.00,WUHU216HW,2013-04-13 11:02:00,
2013-04-13 04:07:00,37.8,34.2,29.81,SW,225,2.7,8.9,87,0.00,,,0.00,WUHU216HW,2013-04-13 11:07:00,
2013-04-13 04:12:00,37.8,34.2,29.81,West,270,2.2,8.5,87,0.00,,,0.00,WUHU216HW,2013-04-13 11:12:00,
2013-04-13 04:17:00,37.6,34.0,29.82,SSE,158,1.1,8.5,87,0.00,,,0.00,WUHU216HW,2013-04-13 11:17:00,
2013-04-13 04:22:00,37.4,33.8,29.82,SSE,158,0.4,3.8,87,0.00,,,0.00,WUHU216HW,2013-04-13 11:22:00,
2013-04-13 04:28:00,37.4,33.8,29.82,SE,135,1.1,9.6,87,0.00,,,0.00,WUHU216HW,2013-04-13 11:28:00,
2013-04-13 04:33:00,37.3,33.7,29.82,SSE,158,0.9,9.6,87,0.00,,,0.00,WUHU216HW,2013-04-13 11:33:00,
2013-04-13 04:38:00,37.3,33.7,29.83,SW,225,1.6,5.1,87,0.00,,,0.00,WUHU216HW,2013-04-13 11:38:00,
2013-04-13 04:43:00,37.1,33.5,29.83,WSW,248,1.8,8.9,87,0.00,,,0.00,WUHU216HW,2013-04-13 11:43:00,
2013-04-13 04:48:00,37.1,33.5,29.83,WSW,248,1.1,8.9,87,0.00,,,0.00,WUHU216HW,2013-04-13 11:48:00,
2013-04-13 04:53:00,37.1,33.5,29.83,SSE,158,0.4,4.9,87,0.00,,,0.00,WUHU216HW,2013-04-13 11:53:00,
2013-04-13 04:58:00,37.1,33.5,29.84,NNE,23,1.1,5.6,87,0.00,,,0.00,WUHU216HW,2013-04-13 11:58:00,
2013-04-13 05:03:00,37.1,33.9,29.84,WSW,248,2.5,6.3,88,0.00,,,0.00,WUHU216HW,2013-04-13 12:03:00,
2013-04-13 05:08:00,37.1,33.9,29.84,ESE,113,1.1,6.3,88,0.00,,,0.00,WUHU216HW,2013-04-13 12:08:00,
2013-04-13 05:13:00,37.1,33.9,29.84,SSE,158,2.5,5.8,88,0.00,,,0.00,WUHU216HW,2013-04-13 12:13:00,
2013-04-13 05:18:00,37.3,33.7,29.84,SW,225,4.0,6.0,87,0.00,,,0.00,WUHU216HW,2013-04-13 12:18:00,
2013-04-13 05:24:00,37.3,33.7,29.84,WSW,248,5.4,7.6,87,0.00,,,0.00,WUHU216HW,2013-04-13 12:24:00,
2013-04-13 05:29:00,37.1,33.5,29.84,SE,135,2.5,7.6,87,0.00,,,0.00,WUHU216HW,2013-04-13 12:29:00,
2013-04-13 05:34:00,37.1,33.5,29.84,West,270,0.4,7.2,87,0.00,,,0.00,WUHU216HW,2013-04-13 12:34:00,
2013-04-13 05:39:00,37.1,33.5,29.84,West,270,1.1,7.2,87,0.00,,,0.00,WUHU216HW,2013-04-13 12:39:00,
2013-04-13 05:44:00,37.1,33.5,29.84,WSW,248,3.4,4.7,87,0.00,,,0.00,WUHU216HW,2013-04-13 12:44:00,
2013-04-13 05:49:00,37.1,33.5,29.84,SW,225,5.1,7.2,87,0.00,,,0.00,WUHU216HW,2013-04-13 12:49:00,
2013-04-13 05:54:00,37.1,33.5,29.84,ENE,68,1.3,7.2,87,0.00,,,0.00,WUHU216HW,2013-04-13 12:54:00,
2013-04-13 05:59:00,36.9,33.3,29.84,WSW,248,4.7,5.1,87,0.00,,,0.00,WUHU216HW,2013-04-13 12:59:00,
2013-04-13 06:04:00,37.1,33.5,29.84,West,270,3.6,6.5,87,0.00,,,0.00,WUHU216HW,2013-04-13 13:04:00,
2013-04-13 06:09:00,37.1,33.5,29.84,SSW,203,3.6,7.4,87,0.00,,,0.00,WUHU216HW,2013-04-13 13:09:00,
2013-04-13 06:15:00,37.1,33.5,29.84,SSE,158,1.8,7.4,87,0.00,,,0.00,WUHU216HW,2013-04-13 13:15:00,
2013-04-13 06:21:00,37.3,33.7,29.84,SW,225,4.5,8.5,87,0.00,,,0.00,WUHU216HW,2013-04-13 13:21:00,
2013-04-13 06:26:00,37.4,34.2,29.84,SW,225,5.8,11.9,88,0.00,,,0.00,WUHU216HW,2013-04-13 13:26:00,
2013-04-13 06:31:00,37.6,34.4,29.83,WSW,248,1.6,9.4,88,0.00,,,0.00,WUHU216HW,2013-04-13 13:31:00,
2013-04-13 06:36:00,37.6,34.4,29.83,WSW,248,4.5,9.4,88,0.00,,,0.00,WUHU216HW,2013-04-13 13:36:00,
2013-04-13 06:42:00,37.8,34.6,29.83,SSE,158,4.0,10.5,88,0.00,,,0.00,WUHU216HW,2013-04-13 13:42:00,
2013-04-13 06:48:00,37.8,34.6,29.84,SW,225,3.1,10.5,88,0.00,,,0.00,WUHU216HW,2013-04-13 13:48:00,
2013-04-13 06:53:00,37.8,34.6,29.84,WSW,248,4.7,9.2,88,0.00,,,0.00,WUHU216HW,2013-04-13 13:53:00,
2013-04-13 06:58:00,38.0,34.8,29.84,SW,225,4.7,9.2,88,0.00,,,0.00,WUHU216HW,2013-04-13 13:58:00,
2013-04-13 07:03:00,38.2,34.9,29.84,WSW,248,2.9,6.9,88,0.00,,,0.00,WUHU216HW,2013-04-13 14:03:00,
2013-04-13 07:08:00,38.2,34.9,29.84,SW,225,2.0,7.6,88,0.00,,,0.00,WUHU216HW,2013-04-13 14:08:00,
2013-04-13 07:13:00,38.5,34.9,29.84,West,270,6.0,9.8,87,0.00,,,0.00,WUHU216HW,2013-04-13 14:13:00,
2013-04-13 07:18:00,38.7,35.1,29.85,SW,225,3.1,9.8,87,0.00,,,0.00,WUHU216HW,2013-04-13 14:18:00,
2013-04-13 07:23:00,38.9,35.3,29.85,SSW,203,7.8,11.2,87,0.00,,,0.00,WUHU216HW,2013-04-13 14:23:00,
2013-04-13 07:28:00,39.4,35.8,29.85,West,270,8.3,11.2,87,0.00,,,0.00,WUHU216HW,2013-04-13 14:28:00,
2013-04-13 07:34:00,39.8,36.2,29.85,SW,225,2.2,9.2,87,0.00,,,0.00,WUHU216HW,2013-04-13 14:34:00,
2013-04-13 07:39:00,39.8,35.9,29.85,SW,225,7.2,10.5,86,0.00,,,0.00,WUHU216HW,2013-04-13 14:39:00,
2013-04-13 07:44:00,40.0,36.1,29.85,SW,225,4.3,12.3,86,0.00,,,0.00,WUHU216HW,2013-04-13 14:44:00,
2013-04-13 07:49:00,40.5,36.3,29.85,SSW,203,4.9,12.3,85,0.00,,,0.00,WUHU216HW,2013-04-13 14:49:00,
2013-04-13 07:54:00,40.7,36.2,29.85,SW,225,7.2,10.5,84,0.00,,,0.00,WUHU216HW,2013-04-13 14:54:00,
2013-04-13 07:59:00,40.7,36.2,29.85,WSW,248,3.6,11.0,84,0.00,,,0.00,WUHU216HW,2013-04-13 14:59:00,
2013-04-13 08:04:00,40.5,36.3,29.86,WSW,248,8.1,11.0,85,0.00,,,0.00,WUHU216HW,2013-04-13 15:04:00,
2013-04-13 08:09:00,40.3,36.1,29.86,SW,225,10.5,10.5,85,0.00,,,0.00,WUHU216HW,2013-04-13 15:09:00,
2013-04-13 08:14:00,40.1,35.9,29.86,WSW,248,11.4,11.4,85,0.00,,,0.00,WUHU216HW,2013-04-13 15:14:00,
2013-04-13 08:19:00,40.1,35.9,29.85,SE,135,2.2,11.4,85,0.00,,,0.00,WUHU216HW,2013-04-13 15:19:00,
2013-04-13 08:25:00,40.0,35.8,29.86,WSW,248,6.9,11.2,85,0.00,,,0.00,WUHU216HW,2013-04-13 15:25:00,
2013-04-13 08:30:00,40.5,36.3,29.86,SW,225,4.5,14.1,85,0.00,,,0.00,WUHU216HW,2013-04-13 15:30:00,
2013-04-13 08:35:00,41.0,36.6,29.86,WSW,248,7.2,15.0,84,0.00,,,0.00,WUHU216HW,2013-04-13 15:35:00,
2013-04-13 08:40:00,41.2,36.7,29.86,SW,225,4.0,15.0,84,0.00,,,0.00,WUHU216HW,2013-04-13 15:40:00,
2013-04-13 08:45:00,41.8,37.5,29.86,SSE,158,4.5,12.1,85,0.00,,,0.00,WUHU216HW,2013-04-13 15:45:00,
2013-04-13 08:50:00,42.3,38.1,29.86,SSE,158,3.4,12.1,85,0.00,,,0.00,WUHU216HW,2013-04-13 15:50:00,
2013-04-13 08:55:00,42.8,38.4,29.86,SSW,203,5.6,10.5,84,0.00,,,0.00,WUHU216HW,2013-04-13 15:55:00,
2013-04-13 09:00:00,43.0,38.2,29.86,WSW,248,3.4,10.5,83,0.00,,,0.00,WUHU216HW,2013-04-13 16:00:00,
2013-04-13 09:05:00,43.0,38.2,29.86,SSW,203,10.5,10.5,83,0.00,,,0.00,WUHU216HW,2013-04-13 16:05:00,
2013-04-13 09:11:00,42.8,38.0,29.86,NW,315,1.1,10.5,83,0.00,,,0.00,WUHU216HW,2013-04-13 16:11:00,
2013-04-13 09:16:00,42.8,38.0,29.87,SSE,158,2.2,10.5,83,0.00,,,0.00,WUHU216HW,2013-04-13 16:16:00,
2013-04-13 09:21:00,42.5,38.0,29.87,SW,225,4.7,10.5,84,0.00,,,0.00,WUHU216HW,2013-04-13 16:21:00,
2013-04-13 09:26:00,42.1,37.9,29.87,SSW,203,4.3,7.6,85,0.00,,,0.00,WUHU216HW,2013-04-13 16:26:00,
2013-04-13 09:31:00,41.8,37.3,29.87,SSW,203,1.8,8.1,84,0.00,,,0.00,WUHU216HW,2013-04-13 16:31:00,
2013-04-13 09:37:00,41.6,37.1,29.87,SW,225,4.0,8.1,84,0.00,,,0.00,WUHU216HW,2013-04-13 16:37:00,
2013-04-13 09:42:00,41.6,37.6,29.87,SSE,158,2.9,6.9,86,0.00,,,0.00,WUHU216HW,2013-04-13 16:42:00,
2013-04-13 09:47:00,41.6,37.6,29.87,SE,135,2.0,5.1,86,0.00,,,0.00,WUHU216HW,2013-04-13 16:47:00,
2013-04-13 09:52:00,42.1,38.2,29.87,SSW,203,4.0,6.9,86,0.00,,,0.00,WUHU216HW,2013-04-13 16:52:00,
2013-04-13 09:57:00,42.3,38.1,29.87,WSW,248,5.4,10.1,85,0.00,,,0.00,WUHU216HW,2013-04-13 16:57:00,
2013-04-13 10:02:00,42.1,37.9,29.87,SE,135,2.5,10.1,85,0.00,,,0.00,WUHU216HW,2013-04-13 17:02:00,
2013-04-13 10:07:00,42.3,38.1,29.87,South,180,2.0,6.3,85,0.00,,,0.00,WUHU216HW,2013-04-13 17:07:00,
2013-04-13 10:13:00,42.3,38.1,29.87,South,180,6.7,9.4,85,0.00,,,0.00,WUHU216HW,2013-04-13 17:13:00,
2013-04-13 10:18:00,42.5,38.3,29.87,ESE,113,2.5,9.4,85,0.00,,,0.00,WUHU216HW,2013-04-13 17:18:00,
2013-04-13 10:23:00,42.5,38.5,29.87,SE,135,0.9,8.7,86,0.00,,,0.00,WUHU216HW,2013-04-13 17:23:00,
2013-04-13 10:28:00,42.7,38.7,29.87,WSW,248,0.9,7.8,86,0.00,,,0.00,WUHU216HW,2013-04-13 17:28:00,
2013-04-13 10:34:00,42.7,38.4,29.86,SSW,203,3.4,5.4,85,0.00,,,0.00,WUHU216HW,2013-04-13 17:34:00,
2013-04-13 10:39:00,42.8,38.6,29.87,SSE,158,1.1,8.5,85,0.00,,,0.00,WUHU216HW,2013-04-13 17:39:00,
2013-04-13 10:44:00,42.8,38.6,29.87,WSW,248,5.4,6.9,85,0.00,,,0.00,WUHU216HW,2013-04-13 17:44:00,
2013-04-13 10:49:00,43.0,38.8,29.86,ESE,113,4.3,6.9,85,0.00,,,0.00,WUHU216HW,2013-04-13 17:49:00,
2013-04-13 10:54:00,43.2,39.0,29.86,SW,225,4.9,11.4,85,0.00,,,0.00,WUHU216HW,2013-04-13 17:54:00,
2013-04-13 11:00:00,43.2,39.0,29.86,South,180,8.5,11.4,85,0.00,,,0.00,WUHU216HW,2013-04-13 18:00:00,
2013-04-13 11:05:00,43.4,39.2,29.87,WSW,248,5.6,9.2,85,0.00,,,0.00,WUHU216HW,2013-04-13 18:05:00,
2013-04-13 11:10:00,43.6,39.3,29.86,WSW,248,2.2,9.2,85,0.00,,,0.00,WUHU216HW,2013-04-13 18:10:00,
2013-04-13 11:15:00,43.4,39.2,29.86,South,180,2.9,8.7,85,0.00,,,0.00,WUHU216HW,2013-04-13 18:15:00,
2013-04-13 11:20:00,43.6,39.3,29.86,WSW,248,6.3,7.6,85,0.00,,,0.00,WUHU216HW,2013-04-13 18:20:00,
2013-04-13 11:25:00,43.9,39.7,29.87,WSW,248,8.3,8.9,85,0.00,,,0.00,WUHU216HW,2013-04-13 18:25:00,
2013-04-13 11:27:00,43.9,39.7,29.87,SW,225,3.8,8.9,85,0.00,,,0.00,WUHU216HW,2013-04-13 18:27:00,
2013-04-13 11:32:00,44.3,39.8,29.87,SSE,158,3.4,9.6,84,0.00,,,0.00,WUHU216HW,2013-04-13 18:32:00,
2013-04-13 11:37:00,44.5,39.6,29.88,West,270,4.9,10.5,83,0.00,,,0.00,WUHU216HW,2013-04-13 18:37:00,
2013-04-13 11:42:00,44.5,40.0,29.88,WSW,248,2.9,12.8,84,0.00,,,0.00,WUHU216HW,2013-04-13 18:42:00,
2013-04-13 11:47:00,44.8,40.3,29.88,SSE,158,3.4,12.8,84,0.00,,,0.00,WUHU216HW,2013-04-13 18:47:00,
2013-04-13 11:52:00,45.2,40.7,29.87,WSW,248,6.7,8.9,84,0.00,,,0.00,WUHU216HW,2013-04-13 18:52:00,
2013-04-13 11:57:00,44.8,40.0,29.87,SSW,203,2.9,9.8,83,0.00,,,0.00,WUHU216HW,2013-04-13 18:57:00,
2013-04-13 12:02:00,44.8,40.3,29.87,SSW,203,3.1,9.8,84,0.00,,,0.00,WUHU216HW,2013-04-13 19:02:00,
2013-04-13 12:07:00,44.6,40.2,29.88,SSW,203,3.8,10.7,84,0.00,,,0.00,WUHU216HW,2013-04-13 19:07:00,
2013-04-13 12:12:00,44.6,40.2,29.88,SW,225,8.7,10.7,84,0.00,,,0.00,WUHU216HW,2013-04-13 19:12:00,
2013-04-13 12:17:00,44.6,40.4,29.88,SSW,203,1.8,8.7,85,0.00,,,0.00,WUHU216HW,2013-04-13 19:17:00,
2013-04-13 12:22:00,44.8,40.3,29.88,SW,225,4.3,8.7,84,0.00,,,0.00,WUHU216HW,2013-04-13 19:22:00,
2013-04-13 12:27:00,45.0,40.5,29.87,SSW,203,5.8,10.5,84,0.00,,,0.00,WUHU216HW,2013-04-13 19:27:00,
2013-04-13 12:32:00,45.7,40.9,29.87,ENE,68,3.4,10.5,83,0.00,,,0.00,WUHU216HW,2013-04-13 19:32:00,
2013-04-13 12:37:00,45.9,40.8,29.87,SSE,158,2.0,11.4,82,0.00,,,0.00,WUHU216HW,2013-04-13 19:37:00,
2013-04-13 12:42:00,46.3,41.1,29.87,SW,225,5.4,11.4,82,0.00,,,0.00,WUHU216HW,2013-04-13 19:42:00,
2013-04-13 12:47:00,46.8,41.3,29.87,SE,135,1.8,12.1,81,0.00,,,0.00,WUHU216HW,2013-04-13 19:47:00,
2013-04-13 12:53:00,47.5,41.9,29.87,WSW,248,6.3,12.1,81,0.00,,,0.00,WUHU216HW,2013-04-13 19:53:00,
2013-04-13 12:58:00,48.2,42.3,29.87,SSW,203,6.0,9.2,80,0.00,,,0.00,WUHU216HW,2013-04-13 19:58:00,
2013-04-13 13:03:00,48.8,42.8,29.87,ESE,113,5.6,8.5,80,0.00,,,0.00,WUHU216HW,2013-04-13 20:03:00,
2013-04-13 13:08:00,49.1,43.2,29.87,SW,225,2.5,8.1,80,0.00,,,0.00,WUHU216HW,2013-04-13 20:08:00,
2013-04-13 13:13:00,49.1,43.2,29.87,ENE,68,1.6,9.4,80,0.00,,,0.00,WUHU216HW,2013-04-13 20:13:00,
2013-04-13 13:18:00,49.0,42.3,29.87,SSW,203,2.2,10.3,78,0.00,,,0.00,WUHU216HW,2013-04-13 20:18:00,
2013-04-13 13:23:00,49.1,42.5,29.87,WSW,248,7.6,12.1,78,0.00,,,0.00,WUHU216HW,2013-04-13 20:23:00,
2013-04-13 13:28:00,49.3,42.7,29.87,ENE,68,4.0,13.9,78,0.00,,,0.00,WUHU216HW,2013-04-13 20:28:00,
2013-04-13 13:33:00,49.3,42.7,29.86,South,180,2.9,15.4,78,0.00,,,0.00,WUHU216HW,2013-04-13 20:33:00,
2013-04-13 13:38:00,49.5,42.6,29.87,ESE,113,4.7,17.4,77,0.00,,,0.00,WUHU216HW,2013-04-13 20:38:00,
2013-04-13 13:43:00,49.0,42.0,29.86,SW,225,8.3,17.4,77,0.00,,,0.00,WUHU216HW,2013-04-13 20:43:00,
2013-04-13 13:48:00,48.4,41.8,29.87,SW,225,2.5,13.2,78,0.00,,,0.00,WUHU216HW,2013-04-13 20:48:00,
2013-04-13 13:53:00,48.2,41.6,29.87,SSE,158,4.0,12.5,78,0.00,,,0.00,WUHU216HW,2013-04-13 20:53:00,
2013-04-13 13:58:00,48.6,41.9,29.86,West,270,6.9,12.5,78,0.00,,,0.00,WUHU216HW,2013-04-13 20:58:00,
2013-04-13 14:03:00,49.0,42.3,29.86,SSW,203,2.0,13.4,78,0.00,,,0.00,WUHU216HW,2013-04-13 21:03:00,
2013-04-13 14:08:00,49.3,42.4,29.87,WSW,248,5.6,13.4,77,0.00,,,0.00,WUHU216HW,2013-04-13 21:08:00,
2013-04-13 14:13:00,49.3,42.4,29.87,WNW,293,2.5,13.4,77,0.00,,,0.00,WUHU216HW,2013-04-13 21:13:00,
2013-04-13 14:18:00,49.0,41.7,29.86,SE,135,2.0,11.6,76,0.00,,,0.00,WUHU216HW,2013-04-13 21:18:00,
2013-04-13 14:23:00,48.6,41.3,29.86,SW,225,4.3,11.4,76,0.00,,,0.00,WUHU216HW,2013-04-13 21:23:00,
2013-04-13 14:28:00,48.4,41.5,29.86,East,90,1.8,11.4,77,0.00,,,0.00,WUHU216HW,2013-04-13 21:28:00,
2013-04-13 14:33:00,48.4,41.5,29.87,SSE,158,2.0,6.7,77,0.00,,,0.00,WUHU216HW,2013-04-13 21:33:00,
2013-04-13 14:38:00,48.6,41.9,29.87,SW,225,7.2,8.3,78,0.00,,,0.00,WUHU216HW,2013-04-13 21:38:00,
2013-04-13 14:43:00,48.8,41.9,29.87,WSW,248,4.0,8.3,77,0.00,,,0.00,WUHU216HW,2013-04-13 21:43:00,
2013-04-13 14:48:00,49.0,42.0,29.87,SSW,203,12.8,12.8,77,0.00,,,0.00,WUHU216HW,2013-04-13 21:48:00,
2013-04-13 14:53:00,49.1,42.2,29.87,SW,225,4.0,12.8,77,0.00,,,0.00,WUHU216HW,2013-04-13 21:53:00,
2013-04-13 14:58:00,49.3,42.4,29.86,SSW,203,3.4,12.8,77,0.00,,,0.00,WUHU216HW,2013-04-13 21:58:00,
2013-04-13 15:03:00,49.5,42.8,29.86,SW,225,4.7,11.2,78,0.00,,,0.00,WUHU216HW,2013-04-13 22:03:00,
2013-04-13 15:08:00,49.9,42.9,29.86,SW,225,12.1,12.1,77,0.00,,,0.00,WUHU216HW,2013-04-13 22:08:00,
2013-04-13 15:13:00,49.5,42.6,29.86,South,180,4.0,12.1,77,0.00,,,0.00,WUHU216HW,2013-04-13 22:13:00,
2013-04-13 15:18:00,49.1,41.9,29.86,WSW,248,3.4,12.1,76,0.00,,,0.00,WUHU216HW,2013-04-13 22:18:00,
2013-04-13 15:23:00,49.3,42.4,29.86,WSW,248,6.9,11.9,77,0.00,,,0.00,WUHU216HW,2013-04-13 22:23:00,
2013-04-13 15:28:00,49.5,42.2,29.86,West,270,8.9,11.9,76,0.00,,,0.00,WUHU216HW,2013-04-13 22:28:00,
2013-04-13 15:33:00,49.9,42.6,29.86,SSE,158,2.5,11.9,76,0.00,,,0.00,WUHU216HW,2013-04-13 22:33:00,
2013-04-13 15:38:00,50.0,42.4,29.86,WSW,248,8.5,17.2,75,0.00,,,0.00,WUHU216HW,2013-04-13 22:38:00,
2013-04-13 15:43:00,49.9,41.9,29.86,WSW,248,9.6,17.2,74,0.00,,,0.00,WUHU216HW,2013-04-13 22:43:00,
2013-04-13 15:48:00,49.7,42.4,29.86,SW,225,2.9,15.4,76,0.00,,,0.00,WUHU216HW,2013-04-13 22:48:00,
2013-04-13 15:53:00,50.0,41.4,29.86,WSW,248,8.9,13.4,72,0.00,,,0.00,WUHU216HW,2013-04-13 22:53:00,
2013-04-13 15:58:00,49.9,41.2,29.87,SE,135,4.9,13.4,72,0.00,,,0.00,WUHU216HW,2013-04-13 22:58:00,
2013-04-13 16:03:00,49.5,40.1,29.86,WSW,248,9.2,13.4,70,0.00,,,0.00,WUHU216HW,2013-04-13 23:03:00,
2013-04-13 16:08:00,49.3,40.7,29.86,South,180,6.9,12.5,72,0.00,,,0.00,WUHU216HW,2013-04-13 23:08:00,
2013-04-13 16:13:00,49.1,40.8,29.86,SSW,203,6.9,11.4,73,0.00,,,0.00,WUHU216HW,2013-04-13 23:13:00,
2013-04-13 16:18:00,49.3,41.3,29.86,WSW,248,6.3,9.2,74,0.00,,,0.00,WUHU216HW,2013-04-13 23:18:00,
2013-04-13 16:23:00,49.3,41.0,29.87,SSE,158,3.8,12.1,73,0.00,,,0.00,WUHU216HW,2013-04-13 23:23:00,
2013-04-13 16:28:00,49.3,41.0,29.87,WSW,248,8.9,14.3,73,0.00,,,0.00,WUHU216HW,2013-04-13 23:28:00,
2013-04-13 16:33:00,49.3,41.0,29.87,WSW,248,3.6,14.3,73,0.00,,,0.00,WUHU216HW,2013-04-13 23:33:00,
2013-04-13 16:38:00,49.1,40.5,29.87,WSW,248,1.6,13.0,72,0.00,,,0.00,WUHU216HW,2013-04-13 23:38:00,
2013-04-13 16:43:00,49.0,40.3,29.86,WSW,248,3.1,13.0,72,0.00,,,0.00,WUHU216HW,2013-04-13 23:43:00,
2013-04-13 16:48:00,49.1,40.2,29.86,SSE,158,3.6,14.3,71,0.00,,,0.00,WUHU216HW,2013-04-13 23:48:00,
2013-04-13 16:53:00,49.1,40.5,29.86,WSW,248,14.1,14.3,72,0.00,,,0.00,WUHU216HW,2013-04-13 23:53:00,
2013-04-13 16:58:00,49.0,40.3,29.86,SSW,203,2.5,14.1,72,0.00,,,0.00,WUHU216HW,2013-04-13 23:58:00,
2013-04-13 17:03:00,49.0,40.6,29.86,SSE,158,5.1,13.4,73,0.00,,,0.00,WUHU216HW,2013-04-14 00:03:00,
2013-04-13 17:08:00,49.0,40.3,29.86,SSE,158,0.9,13.9,72,0.00,,,0.00,WUHU216HW,2013-04-14 00:08:00,
2013-04-13 17:13:00,49.1,40.5,29.86,South,180,8.3,13.9,72,0.00,,,0.00,WUHU216HW,2013-04-14 00:13:00,
2013-04-13 17:18:00,49.0,40.6,29.86,SSW,203,5.4,10.5,73,0.00,,,0.00,WUHU216HW,2013-04-14 00:18:00,
2013-04-13 17:23:00,48.8,40.4,29.86,WSW,248,12.8,14.3,73,0.00,,,0.00,WUHU216HW,2013-04-14 00:23:00,
2013-04-13 17:28:00,48.6,40.6,29.86,SW,225,7.6,14.3,74,0.00,,,0.00,WUHU216HW,2013-04-14 00:28:00,
2013-04-13 17:33:00,48.6,41.0,29.86,West,270,4.7,12.5,75,0.00,,,0.00,WUHU216HW,2013-04-14 00:33:00,
2013-04-13 17:38:00,49.1,41.5,29.87,SW,225,2.2,12.1,75,0.00,,,0.00,WUHU216HW,2013-04-14 00:38:00,
2013-04-13 17:43:00,49.1,41.1,29.87,WNW,293,7.2,13.6,74,0.00,,,0.00,WUHU216HW,2013-04-14 00:43:00,
2013-04-13 17:48:00,48.8,41.1,29.88,SW,225,2.7,13.6,75,0.00,,,0.00,WUHU216HW,2013-04-14 00:48:00,
2013-04-13 17:53:00,48.6,41.0,29.88,South,180,5.4,10.5,75,0.00,,,0.00,WUHU216HW,2013-04-14 00:53:00,
2013-04-13 17:58:00,48.6,41.0,29.88,SSE,158,2.0,10.5,75,0.00,,,0.00,WUHU216HW,2013-04-14 00:58:00,
2013-04-13 18:03:00,48.4,40.8,29.88,West,270,6.5,9.8,75,0.00,,,0.00,WUHU216HW,2013-04-14 01:03:00,
2013-04-13 18:08:00,48.2,40.6,29.88,SSW,203,0.9,9.8,75,0.00,,,0.00,WUHU216HW,2013-04-14 01:08:00,
2013-04-13 18:13:00,48.2,41.0,29.88,West,270,2.7,8.7,76,0.00,,,0.00,WUHU216HW,2013-04-14 01:13:00,
2013-04-13 18:18:00,48.2,41.0,29.88,SE,135,8.5,8.5,76,0.00,,,0.00,WUHU216HW,2013-04-14 01:18:00,
2013-04-13 18:23:00,48.2,41.0,29.89,SW,225,1.8,8.5,76,0.00,,,0.00,WUHU216HW,2013-04-14 01:23:00,
2013-04-13 18:28:00,48.2,41.0,29.89,SW,225,1.1,8.7,76,0.00,,,0.00,WUHU216HW,2013-04-14 01:28:00,
2013-04-13 18:33:00,48.2,41.0,29.89,South,180,5.4,10.1,76,0.00,,,0.00,WUHU216HW,2013-04-14 01:33:00,
2013-04-13 18:38:00,48.6,41.0,29.89,WSW,248,4.0,11.2,75,0.00,,,0.00,WUHU216HW,2013-04-14 01:38:00,
2013-04-13 18:43:00,48.4,40.8,29.89,SW,225,2.7,11.2,75,0.00,,,0.00,WUHU216HW,2013-04-14 01:43:00,
2013-04-13 18:48:00,48.2,40.6,29.90,WSW,248,6.9,9.6,75,0.00,,,0.00,WUHU216HW,2013-04-14 01:48:00,
2013-04-13 18:53:00,47.9,40.6,29.90,SW,225,4.0,8.1,76,0.00,,,0.00,WUHU216HW,2013-04-14 01:53:00,
2013-04-13 18:58:00,47.5,40.6,29.90,SSW,203,3.4,7.6,77,0.00,,,0.00,WUHU216HW,2013-04-14 01:58:00,
2013-04-13 19:03:00,47.2,40.3,29.90,SSW,203,3.4,7.6,77,0.00,,,0.00,WUHU216HW,2013-04-14 02:03:00,
2013-04-13 19:08:00,47.0,40.1,29.90,WSW,248,6.9,7.6,77,0.00,,,0.00,WUHU216HW,2013-04-14 02:08:00,
2013-04-13 19:13:00,46.8,40.3,29.91,SW,225,6.9,8.5,78,0.00,,,0.00,WUHU216HW,2013-04-14 02:13:00,
2013-04-13 19:18:00,46.8,40.3,29.91,SW,225,5.1,8.5,78,0.00,,,0.00,WUHU216HW,2013-04-14 02:18:00,
2013-04-13 19:23:00,46.6,40.1,29.91,West,270,2.5,8.3,78,0.00,,,0.00,WUHU216HW,2013-04-14 02:23:00,
2013-04-13 19:28:00,46.6,40.1,29.91,West,270,1.8,9.6,78,0.00,,,0.00,WUHU216HW,2013-04-14 02:28:00,
2013-04-13 19:33:00,46.4,40.0,29.91,SSE,158,3.4,9.6,78,0.00,,,0.00,WUHU216HW,2013-04-14 02:33:00,
2013-04-13 19:38:00,46.3,39.5,29.91,SSW,203,0.9,8.1,77,0.00,,,0.00,WUHU216HW,2013-04-14 02:38:00,
2013-04-13 19:43:00,45.9,39.2,29.91,SSE,158,1.6,8.3,77,0.00,,,0.00,WUHU216HW,2013-04-14 02:43:00,
2013-04-13 19:48:00,45.7,39.0,29.91,South,180,0.9,8.3,77,0.00,,,0.00,WUHU216HW,2013-04-14 02:48:00,
2013-04-13 19:53:00,45.4,38.6,29.91,SW,225,2.5,5.8,77,0.00,,,0.00,WUHU216HW,2013-04-14 02:53:00,
2013-04-13 19:58:00,45.0,38.5,29.92,WSW,248,2.9,5.8,78,0.00,,,0.00,WUHU216HW,2013-04-14 02:58:00,
2013-04-13 20:03:00,44.8,38.3,29.92,SSW,203,2.5,4.3,78,0.00,,,0.00,WUHU216HW,2013-04-14 03:03:00,
2013-04-13 20:08:00,44.5,38.3,29.92,SSE,158,1.1,4.3,79,0.00,,,0.00,WUHU216HW,2013-04-14 03:08:00,
2013-04-13 20:13:00,44.5,38.3,29.92,WSW,248,0.4,3.4,79,0.00,,,0.00,WUHU216HW,2013-04-14 03:13:00,
2013-04-13 20:18:00,44.3,38.2,29.93,WNW,293,0.2,3.4,79,0.00,,,0.00,WUHU216HW,2013-04-14 03:18:00,
2013-04-13 20:23:00,44.3,38.2,29.94,North,0,1.6,2.0,79,0.00,,,0.00,WUHU216HW,2013-04-14 03:23:00,
2013-04-13 20:28:00,44.1,39.0,29.94,NNE,23,3.4,7.6,82,0.00,,,0.00,WUHU216HW,2013-04-14 03:28:00,
2013-04-13 20:33:00,43.9,38.4,29.94,SSW,203,2.5,7.6,81,0.00,,,0.00,WUHU216HW,2013-04-14 03:33:00,
2013-04-13 20:38:00,43.7,38.3,29.95,ESE,113,2.5,3.4,81,0.00,,,0.00,WUHU216HW,2013-04-14 03:38:00,
2013-04-13 20:43:00,43.7,38.6,29.94,North,0,4.5,4.9,82,0.00,,,0.00,WUHU216HW,2013-04-14 03:43:00,
2013-04-13 20:48:00,43.6,38.4,29.95,NNE,23,4.7,6.0,82,0.00,,,0.00,WUHU216HW,2013-04-14 03:48:00,
2013-04-13 20:53:00,43.6,38.4,29.95,NE,45,2.9,6.0,82,0.00,,,0.00,WUHU216HW,2013-04-14 03:53:00,
2013-04-13 20:59:00,43.6,38.4,29.95,ENE,68,2.2,6.0,82,0.00,,,0.00,WUHU216HW,2013-04-14 03:59:00,
2013-04-13 21:00:00,43.6,38.4,29.95,ENE,68,1.8,3.4,82,0.00,,,0.00,WUHU216HW,2013-04-14 04:00:00,
2013-04-13 21:05:00,43.6,38.4,29.95,East,90,1.1,3.4,82,0.00,,,0.00,WUHU216HW,2013-04-14 04:05:00,
2013-04-13 21:10:00,43.6,38.4,29.95,NNE,23,0.4,2.7,82,0.00,,,0.00,WUHU216HW,2013-04-14 04:10:00,
2013-04-13 21:15:00,43.6,38.4,29.95,NE,45,0.7,1.1,82,0.00,,,0.00,WUHU216HW,2013-04-14 04:15:00,
2013-04-13 21:20:00,43.4,38.3,29.95,East,90,0.4,1.3,82,0.00,,,0.00,WUHU216HW,2013-04-14 04:20:00,
2013-04-13 21:25:00,43.4,38.3,29.95,East,90,0.7,1.3,82,0.00,,,0.00,WUHU216HW,2013-04-14 04:25:00,
2013-04-13 21:30:00,43.2,38.1,29.95,ENE,68,0.4,2.0,82,0.00,,,0.00,WUHU216HW,2013-04-14 04:30:00,
2013-04-13 21:35:00,43.2,38.3,29.96,ESE,113,0.7,2.0,83,0.00,,,0.00,WUHU216HW,2013-04-14 04:35:00,
2013-04-13 21:40:00,43.2,38.3,29.95,ENE,68,1.3,2.0,83,0.00,,,0.00,WUHU216HW,2013-04-14 04:40:00,
2013-04-13 21:45:00,43.2,38.3,29.95,ESE,113,0.0,2.0,83,0.00,,,0.00,WUHU216HW,2013-04-14 04:45:00,
2013-04-13 21:50:00,43.0,38.2,29.96,ENE,68,0.0,1.6,83,0.00,,,0.00,WUHU216HW,2013-04-14 04:50:00,
2013-04-13 21:55:00,43.2,38.3,29.96,ENE,68,0.0,1.1,83,0.00,,,0.00,WUHU216HW,2013-04-14 04:55:00,
2013-04-13 22:00:00,43.2,38.3,29.96,ENE,68,0.4,0.4,83,0.00,,,0.00,WUHU216HW,2013-04-14 05:00:00,
2013-04-13 22:05:00,43.2,38.3,29.96,North,0,0.4,0.4,83,0.00,,,0.00,WUHU216HW,2013-04-14 05:05:00,
2013-04-13 22:10:00,43.2,38.3,29.96,North,0,0.0,0.7,83,0.00,,,0.00,WUHU216HW,2013-04-14 05:10:00,
2013-04-13 22:15:00,43.2,38.3,29.96,North,0,0.0,0.7,83,0.00,,,0.00,WUHU216HW,2013-04-14 05:15:00,
2013-04-13 22:20:00,43.2,38.3,29.96,WSW,248,0.2,0.2,83,0.00,,,0.00,WUHU216HW,2013-04-14 05:20:00,
2013-04-13 22:25:00,43.2,38.3,29.95,SW,225,0.2,1.1,83,0.00,,,0.00,WUHU216HW,2013-04-14 05:25:00,
2013-04-13 22:30:00,43.2,38.3,29.95,SE,135,0.7,1.3,83,0.00,,,0.00,WUHU216HW,2013-04-14 05:30:00,
2013-04-13 22:35:00,43.2,38.3,29.96,South,180,0.4,1.3,83,0.00,,,0.00,WUHU216HW,2013-04-14 05:35:00,
2013-04-13 22:40:00,43.2,38.3,29.96,SSW,203,0.0,3.4,83,0.00,,,0.00,WUHU216HW,2013-04-14 05:40:00,
2013-04-13 22:45:00,43.2,38.3,29.96,SW,225,0.4,3.4,83,0.00,,,0.00,WUHU216HW,2013-04-14 05:45:00,
2013-04-13 22:50:00,43.2,38.3,29.96,SSW,203,2.0,2.0,83,0.00,,,0.00,WUHU216HW,2013-04-14 05:50:00,
2013-04-13 22:55:00,43.2,38.3,29.96,SW,225,1.1,3.1,83,0.00,,,0.00,WUHU216HW,2013-04-14 05:55:00,
2013-04-13 23:00:00,43.2,38.7,29.96,SSW,203,1.1,3.1,84,0.00,,,0.00,WUHU216HW,2013-04-14 06:00:00,
2013-04-13 23:05:00,43.2,38.3,29.96,SW,225,0.0,1.8,83,0.00,,,0.00,WUHU216HW,2013-04-14 06:05:00,
2013-04-13 23:10:00,43.4,38.9,29.97,SSW,203,0.7,1.1,84,0.00,,,0.00,WUHU216HW,2013-04-14 06:10:00,
2013-04-13 23:15:00,43.4,38.9,29.97,SSE,158,1.3,2.9,84,0.00,,,0.00,WUHU216HW,2013-04-14 06:15:00,
2013-04-13 23:20:00,43.4,38.9,29.97,SSW,203,1.3,2.9,84,0.00,,,0.00,WUHU216HW,2013-04-14 06:20:00,
2013-04-13 23:25:00,43.4,38.9,29.97,SE,135,2.5,4.0,84,0.00,,,0.00,WUHU216HW,2013-04-14 06:25:00,
2013-04-13 23:30:00,43.2,38.7,29.97,WSW,248,0.7,4.0,84,0.00,,,0.00,WUHU216HW,2013-04-14 06:30:00,
2013-04-13 23:35:00,43.2,38.7,29.97,WSW,248,0.0,2.9,84,0.00,,,0.00,WUHU216HW,2013-04-14 06:35:00,
2013-04-13 23:40:00,43.2,38.7,29.97,SE,135,0.2,2.0,84,0.00,,,0.00,WUHU216HW,2013-04-14 06:40:00,
2013-04-13 23:45:00,43.2,38.7,29.97,SSE,158,0.2,2.0,84,0.00,,,0.00,WUHU216HW,2013-04-14 06:45:00,
2013-04-13 23:50:00,43.2,38.7,29.97,SW,225,1.1,1.1,84,0.00,,,0.00,WUHU216HW,2013-04-14 06:50:00,
2013-04-13 23:55:00,43.2,38.7,29.97,SW,225,1.1,2.5,84,0.00,,,0.00,WUHU216HW,2013-04-14 06:55:00,